Theta_e
327 327 327 328 328 325 322 321 321 322 322 322 322 322 321 318 316 317 315 315 314 311 310 309 306 305 303 303 306 306 306 307 307 307 307 307 307 307 306 307 306 306 306 306 306 306 306 306 306 305 304 303 303 302 301 301 301 301 302 303 302 302 302 302 302 301 301 301 300 300 300 299 299 299
326 327 327 328 328 326 324 321 320 320 321 321 322 321 320 318 316 316 315 315 315 313 311 310 308 306 305 304 304 304 305 306 306 307 307 306 307 307 306 307 306 306 306 305 305 305 306 306 306 306 304 303 303 302 302 301 301 301 302 302 303 302 302 302 302 302 301 301 301 300 300 299 299 299
326 327 327 328 328 327 325 321 319 320 321 320 320 320 318 316 316 317 315 314 316 314 312 311 309 307 307 306 305 304 304 305 306 306 306 306 306 306 306 306 306 306 306 305 305 305 305 306 306 306 305 303 303 302 302 301 301 301 301 302 302 302 302 301 301 301 301 301 301 300 300 299 299 299
327 327 327 328 327 326 325 322 319 319 320 320 320 319 317 314 313 315 316 314 315 315 312 312 310 308 308 307 306 306 305 305 306 306 306 307 307 306 305 305 306 306 305 306 305 305 305 306 306 306 305 304 303 302 301 301 301 301 301 301 302 302 302 302 301 301 301 301 301 301 300 300 299 299
325 325 326 327 327 326 325 322 319 318 319 318 319 318 317 314 311 313 315 314 315 314 311 312 311 307 307 307 307 307 307 305 306 306 306 306 306 306 306 305 305 305 305 305 305 306 306 306 306 306 305 304 303 302 301 301 301 301 301 301 301 302 302 301 301 301 300 300 301 301 300 300 300 300
319 319 320 321 323 326 326 324 321 320 320 318 318 317 317 315 312 312 314 314 315 314 311 311 311 307 306 308 308 308 308 307 306 307 307 306 306 306 306 306 306 306 305 305 305 305 306 306 306 306 305 304 303 302 301 301 301 301 302 302 301 301 301 301 301 301 301 300 301 300 300 300 300 300
315 315 315 315 317 320 324 325 324 323 322 319 316 316 316 315 314 312 313 313 314 314 313 312 311 309 307 308 309 308 307 307 306 307 308 307 306 305 306 306 306 306 306 305 305 305 306 305 306 306 305 303 303 302 301 301 301 301 302 301 301 301 301 301 301 300 300 300 300 300 300 300 300 300
315 314 314 314 315 316 319 321 323 324 324 321 317 315 315 315 314 313 313 313 313 314 314 312 311 311 309 309 310 308 307 306 305 306 307 307 306 305 305 306 306 306 306 306 306 305 306 306 306 305 304 303 302 302 301 300 300 300 301 301 301 301 300 300 300 300 300 300 300 299 299 299 299 299
314 315 315 314 315 316 316 317 318 320 322 321 318 315 315 315 314 314 313 313 313 313 313 313 312 310 310 310 309 308 307 307 306 306 306 306 306 306 306 305 306 306 306 306 306 305 305 306 306 305 304 303 302 301 300 300 300 300 300 300 300 300 300 299 299 299 298 298 298 298 298 298 299 299
313 315 315 314 314 316 317 317 317 317 318 320 319 316 315 315 314 314 313 312 312 312 312 313 312 310 309 310 309 308 308 309 308 308 308 307 306 306 306 306 306 305 305 306 306 305 305 306 305 304 303 302 301 300 300 300 299 299 299 299 299 298 298 298 298 297 297 296 296 296 297 297 297 298
313 314 315 315 315 315 315 316 316 316 317 319 319 317 315 315 314 313 313 312 312 312 312 312 312 312 310 310 310 308 307 308 309 309 309 309 308 306 306 307 306 305 305 305 305 305 305 305 304 303 302 301 300 300 299 299 299 298 298 298 297 297 297 296 296 296 296 296 296 296 296 296 297 297
314 314 314 314 314 314 314 314 314 315 315 315 315 315 314 314 314 313 313 312 312 312 312 312 312 313 312 310 310 309 308 308 309 309 309 310 311 308 307 307 306 305 305 305 305 305 304 304 303 302 301 300 300 299 299 298 298 298 297 297 296 296 296 296 296 296 296 296 296 296 296 296 296 296
315 315 314 314 314 314 314 314 313 313 314 314 314 314 314 314 314 313 313 313 313 313 313 312 313 313 312 312 311 310 309 309 311 310 309 310 312 310 308 307 306 306 305 305 304 304 304 303 302 301 301 300 299 299 298 298 297 297 296 296 296 296 296 295 295 295 295 295 295 295 295 295 295 295
315 315 315 315 314 314 314 313 313 312 312 313 313 313 314 314 314 313 312 313 314 313 313 313 314 313 314 313 312 312 311 310 311 311 310 310 311 310 309 308 306 305 305 305 305 304 303 302 301 301 301 300 299 299 298 297 297 296 296 296 296 296 295 295 295 294 294 294 294 294 294 294 294 294
315 315 315 314 314 314 314 313 312 312 312 312 312 313 313 313 314 314 313 314 314 314 314 315 315 315 315 315 313 312 312 310 309 310 311 312 312 310 310 311 308 306 305 306 305 304 302 302 302 301 301 299 299 298 298 297 296 296 295 295 295 295 295 294 294 294 293 293 293 294 294 293 293 293
314 314 314 314 313 313 313 313 313 313 312 312 313 313 313 313 314 314 314 315 315 314 315 316 316 315 315 316 315 312 311 310 309 309 311 313 312 311 311 312 310 308 305 305 306 304 302 301 302 301 300 299 298 298 297 296 296 295 295 295 295 295 294 294 293 293 293 293 293 293 293 293 293 294
313 313 313 313 313 313 313 313 313 313 313 313 313 314 314 314 315 315 315 315 315 315 315 316 317 316 315 316 316 313 312 311 311 310 311 312 312 312 312 312 311 309 306 304 305 305 302 300 301 301 300 299 298 297 297 296 295 295 295 295 295 294 294 293 293 293 293 293 293 293 293 293 293 293
314 314 315 315 315 315 315 314 315 315 315 314 313 314 314 314 315 315 316 316 316 316 316 316 317 317 316 315 315 314 313 312 312 311 311 311 311 311 311 311 310 308 306 305 305 305 302 300 301 302 300 298 298 297 296 295 295 295 295 295 295 294 293 293 293 293 293 293 293 293 293 293 293 294
316 316 316 316 316 316 316 315 315 315 315 316 315 315 315 315 315 315 315 316 316 316 316 316 316 316 316 315 314 314 314 313 313 313 312 312 311 310 309 308 306 305 304 303 304 305 303 300 301 302 300 298 298 298 296 295 295 295 295 295 294 293 293 293 293 293 293 293 293 293 293 293 293 294
319 319 319 319 318 318 317 317 317 316 315 315 316 316 316 316 316 316 316 316 316 316 316 316 316 315 315 315 314 314 314 314 314 314 313 312 311 310 308 306 304 303 302 301 302 304 303 300 300 301 300 298 298 298 297 296 295 294 294 294 293 293 293 293 293 293 293 293 293 293 293 293 293 293
317 318 319 319 320 320 319 319 319 318 317 317 317 317 317 317 317 317 317 316 316 316 315 316 316 316 316 316 315 315 314 314 314 314 312 311 310 309 308 307 304 302 301 301 301 302 303 301 300 301 300 298 297 297 298 297 295 294 294 293 293 293 293 293 293 293 293 293 293 293 293 293 293 293
311 313 314 315 316 317 318 319 319 319 318 317 318 318 318 318 318 318 318 317 316 316 315 315 315 315 315 315 315 315 314 314 313 313 312 311 310 309 309 308 305 302 301 300 300 301 302 300 299 299 300 299 298 297 297 297 296 295 294 294 293 293 293 292 293 293 293 293 293 293 293 293 293 294
306 307 308 309 310 311 312 315 316 317 318 317 317 318 319 319 319 319 319 318 318 317 316 315 315 314 314 314 314 314 314 313 312 312 312 311 310 309 309 307 305 303 302 300 300 300 301 300 299 299 299 299 299 297 296 296 296 295 295 295 294 294 292 292 292 292 293 293 293 293 293 293 293 294
303 303 304 304 305 306 307 308 310 313 315 316 316 317 318 318 319 319 318 318 318 317 315 315 315 314 314 313 313 313 312 312 311 311 311 310 309 308 308 306 305 305 303 300 299 300 300 300 299 298 297 298 299 297 296 296 295 295 295 295 294 294 293 293 293 293 293 293 293 293 293 293 293 293
302 303 302 301 301 302 303 304 305 307 309 312 313 314 316 316 317 317 317 316 316 316 315 314 314 312 312 311 311 311 311 310 310 309 307 307 306 306 306 304 304 303 301 299 299 299 299 299 298 298 297 297 297 297 296 295 295 294 294 294 294 294 294 294 294 294 294 294 294 293 293 293 292 292
300 301 300 299 299 300 301 302 303 303 304 306 309 311 313 315 315 315 314 314 314 314 314 312 310 309 308 308 308 309 308 308 307 305 304 304 304 304 303 303 303 302 300 298 298 298 298 298 298 297 297 296 296 296 295 295 295 295 294 294 294 294 294 294 294 294 295 294 294 293 292 292 292 292
297 297 297 297 297 298 299 300 301 302 303 303 304 306 308 311 313 314 312 311 312 313 312 310 308 307 306 305 306 306 305 304 303 302 302 302 302 301 301 300 300 300 299 298 297 296 297 297 296 296 296 296 296 295 296 296 296 295 294 294 294 294 294 294 294 294 294 294 294 293 293 293 293 293
296 296 296 296 297 297 298 299 300 301 302 302 302 303 304 306 310 312 311 310 310 310 311 311 309 308 306 305 304 304 303 302 301 300 301 301 300 299 299 298 298 298 297 296 296 295 295 295 294 294 294 294 294 295 296 295 295 295 294 294 294 294 294 293 294 294 294 294 294 294 294 294 293 293
296 296 296 296 296 297 297 298 300 301 301 301 301 302 303 305 308 311 310 309 309 309 309 310 309 308 307 306 304 304 302 300 300 300 300 299 298 298 298 297 296 296 296 295 294 294 293 293 293 293 293 293 294 294 295 295 295 294 294 293 294 294 294 293 293 294 294 294 294 294 293 293 293 293
296 296 296 296 297 297 297 298 299 300 301 301 301 302 302 304 307 310 309 309 309 308 308 308 308 308 308 306 303 302 301 300 300 300 299 298 297 296 296 296 295 294 294 293 293 292 292 292 291 292 293 293 293 293 294 294 294 294 294 293 293 294 294 293 293 293 293 293 293 293 293 293 293 292
295 295 296 296 297 298 298 298 299 300 301 301 301 302 302 303 306 308 309 308 309 309 309 308 308 308 307 304 302 301 300 300 299 299 298 297 296 295 295 295 294 293 293 292 291 291 291 291 291 292 292 293 293 293 293 293 293 294 294 293 293 293 293 293 293 293 293 293 293 293 293 293 293 292
295 295 296 297 298 299 299 300 300 300 301 302 302 302 302 303 304 306 307 307 307 309 308 308 307 306 304 302 300 299 299 299 298 297 297 296 295 295 295 295 294 294 293 292 291 290 290 290 291 291 292 292 293 293 293 292 293 293 293 293 293 293 293 293 293 293 293 292 293 293 293 293 293 292
295 295 296 297 298 299 300 299 299 300 300 300 301 301 301 302 302 303 304 304 305 306 307 307 306 304 301 299 298 297 297 297 296 296 296 295 295 294 294 295 294 294 294 293 292 291 291 291 291 291 291 292 292 292 292 293 293 293 293 292 293 293 293 293 293 293 292 293 293 293 293 292 292 291
296 296 296 297 298 299 299 299 299 299 299 299 300 300 300 300 301 302 302 302 303 304 304 304 304 301 299 298 297 296 296 295 295 295 295 294 294 294 294 295 294 294 293 293 292 292 292 292 291 291 291 291 291 291 291 292 293 293 292 292 292 293 293 293 293 292 293 293 293 292 292 292 292 291
296 296 296 297 298 298 298 298 298 298 298 298 299 299 299 299 300 300 300 301 302 302 302 301 300 300 298 297 295 295 295 294 294 294 294 294 294 294 294 294 294 293 293 293 293 292 292 292 292 293 293 293 293 292 291 291 292 293 292 292 292 293 293 293 292 292 293 293 292 292 292 292 292 291
296 296 297 298 298 298 298 298 298 298 298 298 298 298 298 298 298 298 299 299 300 301 300 299 298 298 297 295 294 294 293 293 293 294 294 294 294 294 293 293 293 292 293 293 293 292 292 292 293 293 294 294 294 294 293 291 291 292 292 292 292 292 293 293 292 292 293 292 292 292 291 291 291 290
296 297 298 298 298 298 298 299 299 298 298 298 297 297 297 297 297 297 297 298 299 299 299 297 296 296 295 294 294 293 293 292 292 292 293 293 292 292 292 292 292 292 293 292 292 292 292 292 292 293 294 294 294 294 294 293 291 291 292 291 292 292 292 292 292 293 293 292 292 291 291 291 291 290
296 297 297 297 297 298 298 299 298 298 297 297 297 296 296 296 296 296 296 296 297 297 297 296 295 294 294 293 293 292 292 292 292 291 291 292 292 292 292 292 292 292 292 292 292 292 292 292 292 292 293 294 294 293 294 293 292 292 291 291 291 292 292 292 293 293 293 292 291 291 291 290 290 290
296 296 296 297 297 297 298 298 298 297 297 296 296 295 295 295 295 295 295 295 295 295 295 294 293 293 292 292 292 293 292 292 291 291 291 291 291 292 292 292 292 292 292 292 292 292 292 292 292 292 292 293 293 293 292 292 292 292 291 290 291 291 292 292 293 293 292 292 291 291 291 290 290 289
296 296 297 297 297 297 298 298 297 297 296 295 295 295 295 294 294 294 294 294 293 293 293 292 292 292 292 293 293 293 292 291 291 291 291 291 291 291 291 291 291 292 292 292 292 292 292 292 292 291 292 292 291 291 291 291 292 292 291 291 291 291 292 292 292 292 292 291 291 291 291 291 290 290
296 296 297 297 297 297 297 297 297 296 295 295 294 294 294 294 293 293 292 292 292 292 291 291 292 292 293 293 292 292 291 291 291 291 291 291 291 290 290 291 291 291 292 292 292 292 292 291 290 290 290 291 291 291 292 292 292 292 292 292 291 291 292 292 292 291 291 291 291 291 291 291 290 290
295 295 296 296 296 296 296 296 296 295 295 294 293 293 293 293 292 292 291 291 291 291 291 292 292 292 292 292 292 291 291 291 290 290 290 290 290 290 290 290 291 291 292 292 292 292 291 291 290 290 291 291 291 292 293 293 293 292 292 292 292 291 292 292 292 290 290 290 291 291 291 291 290 290
294 295 295 295 295 295 295 295 294 294 294 293 293 293 292 292 291 291 291 291 291 291 291 291 292 292 292 291 291 291 291 291 290 290 290 290 290 290 290 291 291 291 292 292 291 291 291 291 291 291 292 292 292 292 293 293 292 292 292 292 292 292 292 292 291 290 290 290 290 290 290 290 290 290
293 294 294 294 294 294 294 294 293 293 293 293 292 292 291 291 291 291 291 291 291 291 292 292 292 292 292 291 291 291 290 290 290 289 290 290 290 290 290 290 290 291 291 291 291 291 291 291 291 291 292 292 292 292 293 293 293 293 293 292 292 293 293 292 291 291 290 290 290 290 290 290 290 290
292 292 292 292 292 292 292 292 292 292 292 292 291 291 291 292 292 291 291 292 292 292 292 292 292 292 291 291 291 290 290 289 289 289 290 290 290 290 290 290 290 290 290 291 291 291 291 291 291 291 292 292 292 292 292 292 292 293 293 293 293 293 293 292 292 292 292 291 291 290 290 290 290 290
Wind_Speed
8 10 11 9 9 9 8 10 14 14 15 18 18 14 12 11 8 5 5 5 7 9 9 8 9 12 15 19 21 19 16 16 16 14 13 13 12 11 10 9 8 7 8 8 9 9 10 11 13 14 15 14 14 14 13 12 11 9 8 8 8 8 9 10 11 12 13 14 15 16 17 18 19 19
8 9 10 10 10 10 10 10 12 14 15 17 17 14 11 9 9 9 7 6 7 10 10 8 10 14 16 18 20 18 16 16 15 14 12 11 11 10 9 7 6 5 4 4 5 5 6 7 9 12 12 12 12 12 12 12 11 9 8 7 6 6 6 7 8 9 10 12 13 14 16 18 19 20
9 10 11 12 12 12 11 11 12 13 15 17 17 16 14 10 9 11 8 6 8 10 11 9 11 14 16 16 17 18 17 16 15 14 12 11 10 8 8 7 5 4 3 2 1 1 2 4 6 9 10 11 11 11 11 11 10 10 9 8 7 6 6 6 7 8 9 10 11 12 13 15 17 18
10 11 12 13 14 14 13 13 13 14 15 17 17 17 17 12 10 11 8 5 8 12 11 10 11 14 16 16 16 16 16 16 15 14 13 12 10 9 8 7 6 4 3 3 3 3 3 4 4 6 8 9 10 10 10 11 10 9 8 8 8 7 7 7 8 8 9 10 10 11 12 13 15 16
10 11 11 13 14 14 14 14 15 15 15 17 17 17 16 14 12 12 8 4 7 12 14 11 11 15 17 16 16 15 15 17 16 14 14 13 11 11 9 8 7 6 5 4 5 6 6 6 5 5 7 8 8 9 9 10 9 8 8 8 8 8 7 8 9 10 10 11 11 11 12 13 15 16
9 9 9 11 12 14 15 15 15 15 15 16 17 17 15 14 14 13 9 5 6 11 15 14 13 16 18 16 16 17 16 17 17 15 14 13 12 12 11 10 9 9 7 7 8 9 8 8 7 5 6 7 8 8 9 9 8 7 6 6 6 7 8 9 10 11 12 12 13 13 14 15 16 16
6 6 6 6 9 13 16 17 16 15 15 14 15 16 16 15 16 15 11 7 7 9 13 15 14 15 19 17 14 17 18 18 17 15 13 14 14 14 13 12 11 11 11 11 11 11 10 9 8 6 6 7 7 8 8 8 7 6 5 5 5 6 7 8 10 11 11 12 13 14 15 16 17 17
5 5 4 3 4 8 13 17 18 17 16 15 14 16 17 17 17 17 14 9 7 8 10 14 14 14 18 17 14 16 19 19 19 16 15 15 15 15 15 14 13 13 13 13 13 13 12 10 8 7 7 7 8 8 7 6 5 5 5 5 5 5 6 7 8 9 10 12 13 15 16 17 18 18
4 4 3 2 2 4 7 12 16 18 17 17 16 16 17 18 18 18 16 12 9 9 9 12 14 14 15 15 15 18 17 17 18 18 17 17 15 15 16 15 16 16 15 14 13 12 12 10 8 7 7 7 7 7 6 5 5 4 5 5 5 5 6 8 9 11 12 13 14 15 16 16 17 17
4 3 4 4 4 3 4 7 10 13 15 15 16 17 17 17 19 19 18 14 12 11 10 9 12 15 16 15 16 19 18 15 14 15 16 17 17 16 15 15 16 17 16 15 13 12 11 10 8 7 7 7 6 6 6 5 5 5 6 7 7 8 9 11 12 13 14 15 15 16 16 15 15 15
5 5 5 5 5 4 3 4 5 7 10 11 13 14 15 15 17 17 16 14 13 12 11 10 10 13 17 16 14 17 19 17 14 14 13 13 16 17 15 14 15 17 17 16 14 13 12 10 8 7 6 6 6 6 6 6 6 7 8 9 10 11 11 12 12 12 13 14 15 15 15 15 15 15
6 6 6 5 4 4 3 3 3 4 6 8 10 11 12 12 13 13 13 12 12 12 12 12 10 10 13 16 15 15 17 16 15 17 17 13 12 15 15 13 14 16 16 15 14 13 12 9 7 6 6 6 6 6 7 7 7 9 9 11 11 11 11 11 11 12 13 14 15 16 16 16 16 16
5 6 6 5 5 5 4 4 4 5 6 7 9 10 11 12 12 12 11 11 11 11 11 11 10 10 10 13 14 15 17 18 16 16 19 15 10 10 11 12 15 16 14 13 13 13 11 9 7 6 5 7 7 6 6 6 7 9 10 11 11 10 10 11 12 14 15 15 16 16 17 17 17 17
6 6 6 6 6 5 6 5 5 6 7 8 9 10 10 11 12 13 12 11 11 11 11 11 11 11 11 13 16 17 19 21 18 15 17 15 11 10 9 9 15 18 15 12 11 12 12 10 8 7 7 8 7 4 4 6 8 10 10 11 10 10 11 13 15 15 15 14 14 15 15 15 15 15
7 7 7 7 7 7 7 7 7 7 8 9 10 10 10 10 11 12 13 13 13 12 11 11 11 12 12 14 18 19 18 20 22 19 16 14 12 13 11 10 13 18 18 13 9 11 13 10 8 7 7 7 6 5 6 8 9 9 10 10 10 11 13 15 15 14 13 13 13 13 14 13 13 12
7 8 8 9 9 9 10 10 10 10 10 11 11 11 12 12 11 12 12 12 13 14 12 11 11 13 14 13 15 19 19 20 22 20 15 13 13 14 15 12 10 15 20 15 9 10 13 11 8 7 8 8 7 8 8 9 9 9 9 10 10 11 13 14 13 12 12 12 12 13 13 12 11 11
7 8 9 10 10 11 11 10 11 12 12 13 13 13 13 14 13 14 14 14 14 15 14 13 13 14 15 13 14 18 18 17 18 17 15 14 15 14 14 13 11 15 20 17 11 9 11 12 9 7 9 10 8 8 8 8 9 9 9 9 10 11 12 12 12 11 11 11 12 12 12 11 10 10
9 10 10 11 12 13 13 12 12 12 13 14 15 15 16 17 17 17 17 17 17 17 18 17 16 17 18 17 16 17 15 13 13 13 12 12 14 15 15 15 15 16 18 16 11 8 11 12 10 8 9 9 8 8 9 10 10 10 9 10 11 12 11 11 11 11 11 11 11 11 11 10 10 10
9 10 11 12 13 14 14 15 14 13 14 14 15 16 17 18 19 19 20 20 20 21 21 21 20 20 20 20 19 18 17 16 15 15 14 15 16 16 16 15 14 14 16 18 13 8 9 12 10 8 8 7 6 7 10 12 11 10 10 11 12 12 11 11 12 11 11 11 11 10 10 10 10 12
8 9 10 10 12 13 13 14 13 13 13 14 15 17 18 19 20 21 21 22 22 23 23 23 23 23 22 22 21 20 20 19 19 19 18 18 18 16 13 11 10 12 16 18 14 8 8 11 10 7 7 7 6 7 8 11 10 9 9 11 12 12 12 12 12 11 11 11 11 11 11 11 11 13
8 9 10 10 12 12 12 12 12 12 12 13 14 15 16 18 20 22 22 22 23 24 24 24 24 24 24 24 23 22 20 18 18 18 17 18 18 15 12 10 10 12 16 18 15 9 7 9 9 7 6 7 8 7 7 8 9 9 10 12 12 11 11 12 11 11 11 11 12 12 11 12 12 13
9 10 11 11 12 12 12 13 13 12 12 12 13 13 14 14 16 20 22 23 23 24 24 24 25 24 24 24 23 24 22 21 21 20 20 20 19 16 14 12 10 11 14 17 16 11 7 8 7 5 5 7 7 6 6 7 7 7 9 11 10 9 10 10 10 11 11 11 12 12 12 12 12 12
12 13 12 12 12 12 12 14 14 13 13 12 12 12 13 15 16 17 19 22 23 24 26 26 25 25 25 25 25 26 24 23 22 22 22 22 20 17 15 14 11 8 10 16 17 11 6 7 6 4 5 5 4 4 5 7 6 6 8 8 8 9 10 10 9 10 10 10 10 11 11 11 11 10
14 14 14 14 14 13 14 15 15 15 14 13 12 12 13 16 17 16 17 20 22 23 25 26 25 24 25 25 26 25 23 22 22 21 21 21 20 18 17 16 14 7 6 13 16 10 6 6 5 4 4 5 4 4 5 6 7 7 7 6 7 8 9 8 8 9 10 9 9 10 9 10 10 11
11 11 12 15 16 15 15 16 17 18 17 16 15 15 15 17 17 17 18 20 22 22 23 23 24 23 23 23 23 22 21 21 21 21 19 19 19 19 17 16 14 8 6 11 14 10 6 5 5 4 4 5 7 7 7 7 7 6 6 7 7 7 7 7 7 7 9 10 10 10 11 10 11 12
11 12 15 17 18 18 17 17 18 19 20 20 20 20 20 19 18 19 19 19 21 23 23 21 21 20 20 20 21 21 22 22 22 20 19 20 20 20 18 16 13 10 8 10 12 9 6 5 5 5 5 6 8 8 8 8 6 5 6 6 6 6 7 7 6 7 8 9 10 11 11 10 10 11
15 17 19 20 20 21 20 20 20 20 21 22 23 24 24 22 20 20 19 17 20 23 23 21 20 19 19 19 20 22 23 23 22 21 19 20 20 19 17 16 14 11 9 10 10 9 7 4 4 6 6 7 8 8 7 7 5 5 6 6 5 6 6 5 6 7 8 9 9 9 9 9 9 11
17 18 20 21 22 23 23 23 24 24 23 24 23 24 24 22 21 21 20 17 19 22 24 24 24 23 21 21 23 25 26 25 24 22 20 20 20 19 17 15 13 10 9 9 9 9 7 5 5 7 8 8 8 7 6 6 6 6 7 7 5 5 5 4 6 7 8 8 8 8 8 8 9 11
17 19 20 20 21 23 23 24 25 25 25 25 25 24 23 21 20 22 21 17 17 21 25 26 26 25 25 26 27 27 27 25 24 23 22 21 19 18 16 14 11 9 8 8 8 8 8 7 6 7 8 8 7 6 6 6 7 6 6 7 7 6 5 5 6 7 7 7 6 7 7 8 9 10
18 20 21 21 21 22 23 23 24 25 25 26 26 26 23 21 21 23 21 17 18 22 25 25 24 25 28 29 28 27 27 26 25 24 24 22 19 17 15 13 11 8 7 7 7 7 8 8 7 7 7 6 6 6 5 6 7 7 6 7 7 6 5 5 6 7 7 6 6 7 7 8 9 9
21 22 23 23 22 21 20 21 22 24 24 24 25 23 19 17 20 23 21 18 20 23 24 24 25 28 30 30 29 29 29 28 28 27 27 25 21 17 14 12 10 8 7 6 6 7 7 7 6 6 5 5 5 5 5 6 7 7 7 6 6 6 6 6 7 6 6 6 7 7 7 8 9 9
23 24 25 25 23 18 15 15 16 17 18 18 18 17 14 13 17 20 21 20 21 22 23 24 27 29 30 31 31 32 31 30 30 28 26 24 22 19 14 12 10 9 7 6 6 6 6 5 5 5 5 5 5 5 5 6 6 6 6 6 6 6 6 6 6 5 6 6 6 7 8 8 8 7
23 24 24 23 19 15 13 13 13 13 13 14 14 14 14 15 15 16 17 19 20 21 24 27 29 29 30 31 32 32 32 32 31 28 25 23 20 16 13 10 10 10 9 8 7 6 5 4 4 5 5 5 6 6 6 5 5 5 5 5 6 5 5 5 5 5 6 6 6 8 8 7 6 5
19 19 17 15 13 12 12 12 12 12 12 13 14 14 15 17 18 17 17 18 18 19 22 27 29 29 31 33 33 34 35 34 31 27 24 21 18 15 12 11 10 9 8 7 7 6 5 4 4 4 5 5 5 5 5 4 4 4 4 4 5 5 4 4 4 5 5 5 6 8 7 6 5 5
15 14 12 12 11 10 10 11 12 12 13 14 15 15 15 16 18 19 19 18 17 18 20 23 27 30 32 32 31 32 35 34 30 25 21 19 16 13 12 11 10 9 8 7 7 6 5 4 4 4 4 4 4 4 4 2 2 3 3 4 4 4 4 4 3 4 4 5 6 7 7 7 6 5
14 13 12 11 11 10 10 11 12 12 13 14 14 14 14 14 14 17 19 18 16 19 21 22 26 30 31 30 28 27 26 24 21 20 18 16 14 12 11 10 10 9 8 7 6 6 5 5 4 4 3 3 4 4 4 2 1 1 2 3 4 4 4 3 3 3 4 5 6 7 7 6 5 6
11 11 11 11 11 11 12 13 13 13 14 13 12 12 13 13 13 16 19 18 16 19 21 22 25 28 29 30 30 28 24 19 16 15 14 13 12 11 10 10 10 9 8 7 6 6 6 5 4 3 3 3 2 2 3 1 2 2 2 3 3 3 3 3 3 4 4 5 6 6 6 6 5 6
9 10 11 12 12 13 13 13 14 14 13 13 12 12 11 12 13 16 17 15 15 18 21 23 24 25 28 31 31 29 26 21 18 15 13 11 10 9 10 10 10 9 8 7 7 6 6 5 4 3 3 3 2 1 2 1 1 2 3 4 3 2 3 3 4 5 4 5 6 6 5 5 4 7
8 9 11 12 13 14 14 13 12 13 14 14 14 12 11 12 14 14 13 13 15 18 22 24 25 27 31 33 32 29 24 21 18 14 11 10 9 8 9 10 10 10 9 8 7 7 6 5 3 3 3 3 2 1 0 1 1 2 4 5 3 2 2 3 4 5 4 4 5 6 5 3 3 7
9 10 11 11 12 13 13 12 11 12 15 16 15 13 12 12 13 12 11 13 16 20 23 25 28 31 33 31 29 26 23 21 18 13 9 8 8 8 8 9 9 10 10 8 8 6 5 4 3 2 3 3 2 1 1 2 2 1 2 4 4 3 3 4 4 4 3 4 5 5 6 5 4 6
10 10 10 10 11 11 11 10 10 11 13 14 14 13 11 11 10 9 11 15 20 24 27 27 29 30 29 27 26 25 24 22 18 13 9 8 8 8 8 8 8 9 9 8 7 6 4 3 2 2 3 4 3 1 1 1 1 1 2 2 5 6 6 5 3 2 2 3 4 5 7 7 6 7
10 10 10 9 9 10 9 9 10 11 11 9 9 9 9 8 8 10 14 18 22 26 29 29 28 27 26 24 23 23 22 20 17 13 10 9 9 9 9 8 8 8 8 7 6 5 3 3 2 2 3 3 2 0 2 2 1 1 2 2 3 6 6 4 1 0 1 1 2 4 7 7 6 7
10 11 10 10 10 10 9 8 10 10 7 4 4 6 8 10 12 15 17 20 23 26 27 27 26 25 23 20 18 17 17 18 17 14 11 10 10 9 8 8 8 8 7 7 6 5 3 2 2 2 2 1 1 1 1 1 1 2 3 3 3 4 4 2 0 1 1 1 1 2 4 5 6 6
11 11 12 11 10 10 9 8 8 7 4 1 3 7 11 14 16 16 18 20 22 23 24 23 22 21 20 18 17 16 16 19 18 15 11 10 9 8 8 8 8 8 7 7 6 5 3 2 1 1 0 1 2 2 2 1 2 2 2 2 3 3 3 2 1 1 1 1 2 3 3 3 4 5
12 12 12 11 10 9 8 7 5 4 1 3 7 10 13 16 16 15 16 19 20 21 20 20 20 20 18 17 17 17 18 19 17 13 10 10 9 8 7 7 7 7 7 7 6 4 3 2 1 1 2 3 3 3 2 2 2 2 2 2 2 2 2 3 3 2 2 2 3 3 3 3 4 5
Wind_Direction
208 208 203 196 202 206 198 196 195 192 187 182 176 171 167 163 160 161 170 176 172 175 177 172 175 180 172 167 165 162 159 154 147 142 139 135 132 131 125 118 113 105 96 88 80 73 64 59 56 54 53 52 50 47 43 38 32 25 16 12 11 11 12 10 8 8 7 7 8 10 11 12 14 15
203 196 191 188 193 197 195 196 196 193 193 189 184 183 181 173 167 165 165 172 176 176 182 183 176 178 179 175 173 173 170 164 158 154 150 146 142 139 137 133 128 123 112 96 81 68 56 49 48 47 45 44 41 39 35 31 25 19 10 0 352 349 352 356 358 359 359 359 0 2 4 6 9 9
195 188 185 183 185 189 191 193 193 192 193 193 193 195 194 188 179 172 165 167 179 180 182 186 180 178 181 181 180 180 178 173 169 167 164 162 160 155 153 154 152 151 154 143 109 38 13 17 29 36 36 35 32 29 26 22 17 12 5 356 344 335 331 334 342 349 352 353 353 355 358 1 3 3
185 184 184 183 183 184 187 190 191 191 194 196 200 202 200 198 191 181 174 166 172 182 185 180 179 182 183 186 187 186 185 183 178 177 177 175 174 174 177 181 181 183 198 213 231 258 284 313 350 18 24 24 23 19 15 12 9 5 359 354 346 337 330 328 332 337 340 342 344 346 349 352 355 356
181 184 187 188 187 186 188 192 192 193 197 199 204 208 202 200 199 191 189 177 162 181 191 184 182 188 188 191 193 193 193 191 188 187 189 190 188 191 196 202 206 212 219 232 245 256 267 278 302 346 5 10 12 9 5 2 359 355 352 350 347 342 334 328 328 330 330 333 335 336 338 341 344 345
177 181 186 191 193 193 194 194 195 199 202 200 203 210 206 202 203 198 194 187 170 181 192 192 190 192 193 196 199 200 200 197 198 199 200 201 202 205 208 211 217 225 228 237 250 260 267 270 280 312 340 351 355 355 354 353 349 342 339 342 344 342 335 328 327 328 328 329 329 329 329 331 332 334
163 162 164 175 185 194 198 199 201 204 207 203 202 210 213 211 212 209 203 201 191 184 188 193 194 195 198 201 202 204 206 205 206 209 212 214 215 215 216 217 223 228 231 238 249 258 268 270 271 290 317 331 339 343 344 346 344 336 331 335 337 336 332 328 328 329 328 329 328 326 324 323 324 326
148 148 141 132 157 183 194 202 206 208 212 213 209 213 219 222 225 224 221 220 211 198 193 194 197 198 200 203 205 205 209 212 213 216 221 223 225 225 225 226 229 232 235 240 246 254 263 265 265 278 302 317 325 333 336 336 337 332 330 334 333 330 328 327 327 328 326 325 322 319 318 317 317 318
148 154 157 152 163 173 181 194 203 208 213 217 217 219 222 225 233 236 233 228 220 217 210 200 201 203 200 204 211 210 209 213 217 222 226 227 229 232 234 235 234 234 236 240 243 250 254 252 254 272 294 310 319 324 326 327 326 327 332 333 333 330 327 324 321 320 318 316 314 313 312 313 314 315
171 177 179 183 182 169 164 174 186 198 207 214 219 224 225 228 236 241 238 231 223 223 224 213 208 209 207 207 212 215 214 214 216 221 228 233 236 239 241 240 236 232 231 233 235 240 242 242 250 269 287 299 307 309 309 311 313 319 326 328 328 326 321 319 316 313 313 313 312 313 313 313 315 315
180 182 181 178 168 151 143 156 166 184 201 212 221 228 233 236 242 244 238 227 220 220 223 224 217 213 212 210 212 218 220 221 224 225 227 231 236 241 242 236 229 225 224 225 227 230 234 239 250 264 278 283 288 292 296 302 311 318 325 326 328 327 323 320 319 317 316 314 313 312 312 313 313 313
172 175 177 179 177 169 167 182 193 204 218 225 230 234 238 242 247 247 236 223 218 217 220 224 220 214 215 214 214 218 220 223 228 229 229 229 230 234 234 227 218 215 215 215 217 223 227 232 242 252 261 267 272 282 293 302 312 320 327 330 330 330 328 326 323 320 315 311 307 306 306 305 305 304
178 178 181 184 188 193 195 202 212 222 230 235 240 243 243 244 248 246 236 223 216 217 221 222 217 215 218 215 213 215 219 223 225 227 230 230 225 222 218 215 213 208 204 204 208 216 219 218 222 219 224 249 266 281 294 303 314 320 327 330 329 327 325 322 320 318 314 311 309 308 306 304 302 301
204 204 205 208 213 220 226 232 236 235 233 233 236 240 243 246 249 246 239 228 219 220 225 225 220 221 223 220 220 223 226 228 229 231 231 228 219 212 203 204 214 213 204 195 198 210 215 211 207 200 211 243 259 267 278 290 307 318 322 323 322 318 317 319 321 321 321 323 322 319 316 312 310 309
220 221 225 230 235 243 249 255 258 256 251 245 241 239 239 242 245 244 240 234 230 230 231 231 229 230 233 232 230 231 234 236 239 238 233 225 215 211 209 208 215 217 210 195 188 207 216 212 203 198 212 236 247 249 270 291 305 313 315 314 312 312 317 322 323 323 326 331 331 328 325 322 321 322
234 237 244 249 254 260 266 270 273 272 268 260 253 247 243 242 243 243 241 238 238 239 240 240 237 238 243 241 238 239 241 242 243 242 235 225 218 218 223 223 217 216 212 200 186 203 213 210 202 205 220 236 249 260 277 295 302 302 304 306 308 314 320 321 320 321 327 331 332 332 333 332 329 326
257 260 265 268 271 274 275 278 279 278 274 266 259 254 250 248 248 248 248 247 247 247 246 244 244 248 251 248 246 253 254 249 245 241 235 230 226 226 231 228 223 221 214 201 191 200 206 206 205 212 228 242 255 266 281 292 292 292 296 299 307 316 317 315 315 317 322 326 327 329 332 334 329 320
282 284 286 286 287 288 287 287 286 285 281 275 269 264 261 259 258 256 255 254 253 253 251 249 250 257 262 258 253 257 261 255 245 238 235 236 234 233 236 237 234 229 214 199 196 204 203 206 212 213 224 241 254 261 279 289 286 287 291 294 306 313 308 305 309 312 313 315 317 319 322 324 319 313
282 284 285 286 287 288 288 288 288 288 287 284 279 274 270 269 266 263 261 259 258 256 255 254 254 256 262 264 259 258 260 256 251 249 249 248 244 241 242 240 233 223 210 200 200 209 204 206 215 215 218 237 252 256 275 286 282 279 283 291 303 304 297 298 303 305 305 304 304 305 307 310 308 305
278 278 279 280 279 279 281 282 282 284 286 286 282 277 274 274 271 268 266 264 262 260 257 257 256 256 259 261 260 262 262 256 254 255 251 245 241 235 228 218 202 204 209 204 201 209 206 203 214 221 215 231 251 252 264 275 273 270 275 288 297 294 289 294 301 302 300 298 298 296 296 297 297 297
293 290 285 284 283 281 281 281 280 280 280 282 282 277 274 274 272 272 272 267 262 261 259 258 259 259 259 258 258 260 258 252 251 248 237 232 229 218 207 199 189 198 209 207 204 211 210 202 211 222 223 243 263 259 245 249 260 270 281 291 294 287 287 296 301 302 300 296 292 288 286 289 293 301
310 306 302 300 297 294 291 289 288 286 282 280 278 274 272 270 268 271 274 271 266 263 261 260 260 259 258 256 255 256 254 253 254 247 237 234 226 211 208 205 187 190 207 210 207 206 206 205 208 224 248 257 257 248 226 224 244 276 291 295 294 287 291 301 302 301 300 295 290 286 286 291 299 310
305 303 303 303 302 301 297 291 287 284 282 278 273 269 267 262 260 264 270 272 270 267 264 263 261 260 259 257 257 259 257 255 253 246 240 236 224 212 210 200 181 182 209 212 209 203 202 210 209 231 268 269 249 234 227 225 243 278 287 286 288 291 300 309 306 302 301 296 291 291 295 298 304 312
303 301 300 298 295 294 293 290 286 281 276 271 267 264 260 258 257 259 266 271 272 268 266 266 265 263 261 258 257 257 251 245 242 239 237 234 223 212 205 197 193 197 206 208 208 202 198 209 209 223 254 265 269 267 249 242 256 276 281 280 283 292 305 315 311 307 309 308 303 302 304 304 306 308
308 307 307 305 301 297 292 288 285 282 277 271 264 257 253 253 255 257 262 268 270 267 265 266 263 259 254 249 246 242 236 233 234 230 224 219 212 208 205 201 198 193 190 201 199 191 191 207 210 219 233 246 261 269 267 265 265 263 272 284 290 296 308 310 304 307 315 319 319 314 310 308 306 304
317 317 317 315 310 306 301 295 288 283 280 276 271 265 261 258 258 261 262 262 263 263 259 254 249 242 237 232 228 226 224 222 219 213 207 204 205 207 210 207 197 188 193 199 193 188 198 207 207 221 235 243 254 260 266 273 269 259 275 290 294 303 311 306 303 310 314 317 320 319 322 323 313 307
318 318 317 314 309 306 304 301 297 291 286 282 279 276 273 266 260 263 262 254 253 254 251 243 236 228 222 217 215 214 213 209 204 199 198 199 200 199 201 201 197 192 193 194 194 200 206 202 210 228 237 247 256 258 263 274 278 281 293 301 301 307 312 304 303 312 313 315 320 326 337 339 326 320
314 314 311 308 306 303 299 297 296 294 292 289 286 284 281 273 263 260 258 249 244 246 244 239 236 231 223 215 212 211 207 200 196 194 191 190 191 190 189 188 188 188 187 188 196 208 215 217 223 230 233 242 256 264 272 284 290 293 304 312 310 309 312 304 305 312 313 316 323 330 337 335 327 326
308 309 307 305 305 302 298 295 292 291 291 291 288 286 284 276 262 257 255 245 234 235 238 237 235 232 228 221 216 212 204 193 189 187 183 180 180 180 177 173 174 180 186 192 201 217 231 230 220 223 232 239 252 267 278 287 290 294 307 315 310 306 307 308 310 313 314 318 325 330 332 329 325 325
310 310 309 309 308 303 298 294 289 287 287 288 288 287 283 273 261 256 253 243 230 229 232 231 229 230 229 223 214 206 197 189 185 182 178 171 167 168 168 163 162 172 187 202 212 220 229 228 217 220 231 238 249 267 279 286 291 294 298 303 307 306 304 309 314 315 319 324 325 327 330 328 325 324
316 314 315 317 316 310 302 295 290 287 285 285 286 285 282 273 264 259 253 243 236 234 230 226 224 226 224 216 205 196 191 187 184 181 178 171 164 163 161 152 148 158 177 200 218 221 220 219 216 217 230 243 252 263 274 280 286 292 292 293 301 302 303 312 317 317 323 328 326 327 329 327 326 328
316 315 317 319 318 312 302 296 293 290 287 285 284 283 280 274 270 266 259 250 244 240 234 228 225 221 215 206 196 189 185 181 178 177 176 172 166 162 158 150 149 159 168 180 203 217 212 206 206 215 231 246 252 261 274 276 273 278 287 295 300 301 305 314 319 322 329 331 328 329 330 328 330 336
313 313 315 316 315 308 298 295 294 292 292 293 290 287 285 281 276 271 263 256 250 244 238 235 228 216 205 195 185 180 178 175 172 172 172 170 164 160 156 155 161 169 172 172 178 186 189 199 223 234 232 238 248 256 261 263 262 268 283 297 306 310 314 318 321 328 333 331 326 328 331 332 336 342
306 307 307 305 303 297 292 292 292 293 297 298 295 294 293 290 285 279 270 262 255 247 238 232 223 209 196 188 181 177 174 171 168 169 171 168 164 161 160 160 161 166 169 169 169 171 176 193 224 236 234 241 251 241 232 243 263 274 285 297 306 315 323 325 328 331 331 329 327 328 333 338 341 344
296 295 292 291 292 288 285 286 288 291 295 296 295 295 293 290 289 286 279 270 257 243 231 221 213 205 195 187 181 176 172 166 163 162 163 163 163 163 161 158 158 160 163 162 161 165 174 187 208 226 233 240 233 209 193 208 262 271 281 303 312 315 321 327 330 326 328 331 331 331 335 340 341 343
288 288 287 286 287 286 286 288 290 293 295 292 290 291 290 288 287 286 284 276 256 237 224 212 204 199 192 183 177 172 166 158 151 148 151 153 154 152 150 149 151 155 158 159 161 166 175 185 203 225 230 231 227 206 181 147 27 321 290 305 314 313 315 319 322 326 331 334 335 337 337 335 338 346
285 290 291 290 290 290 290 293 295 297 294 289 285 284 285 286 286 285 284 277 254 233 220 205 196 192 186 178 172 165 159 151 140 135 136 137 139 142 143 144 149 153 155 157 162 168 174 181 195 217 224 233 240 196 168 151 13 6 343 313 304 306 308 312 323 335 339 337 338 339 335 330 333 339
289 293 294 294 296 295 294 296 299 299 294 290 287 285 282 282 283 283 280 267 243 223 208 194 185 181 175 169 161 155 151 149 145 140 136 134 140 150 152 151 154 156 154 155 162 167 172 179 187 204 222 241 256 185 154 181 291 334 331 317 293 282 296 309 326 336 339 338 338 337 332 327 334 344
306 303 303 302 299 298 297 296 299 303 301 295 289 284 280 277 277 274 263 242 220 202 189 179 170 164 160 158 154 150 148 149 149 149 149 150 155 163 162 158 159 157 153 154 160 163 169 179 191 213 232 250 266 250 269 299 278 286 306 304 278 247 270 293 313 326 333 338 339 340 340 329 333 356
317 310 308 305 300 300 299 297 301 309 310 300 289 280 273 268 265 258 237 212 191 177 168 162 156 153 152 152 152 152 152 155 157 156 156 159 165 170 167 161 158 158 158 158 160 163 171 182 195 214 224 236 258 267 294 312 294 245 267 276 265 259 271 281 293 306 328 343 344 350 359 357 349 358
327 317 310 304 302 303 302 301 306 313 311 302 288 276 263 253 244 227 202 182 169 160 154 150 149 149 150 153 156 154 152 154 157 155 153 160 167 167 164 157 155 158 161 162 162 165 167 166 181 217 227 237 254 270 51 34 25 152 177 241 269 279 282 279 271 272 305 333 342 351 358 0 358 359
336 330 321 315 317 317 314 314 318 320 317 304 282 261 240 221 199 178 164 157 152 148 146 144 146 149 151 154 156 153 149 151 155 155 158 166 167 163 161 156 153 156 158 157 157 155 146 148 189 241 247 240 237 144 75 62 78 176 182 210 264 285 291 286 259 216 252 298 1 6 3 360 358 360
342 341 336 332 335 334 331 331 329 325 320 298 245 217 192 168 154 148 144 141 139 139 139 140 144 147 148 149 149 147 149 157 162 161 163 168 168 164 160 154 148 145 144 142 140 132 125 146 212 255 251 214 167 121 85 82 146 194 208 213 239 272 284 276 123 74 94 139 70 17 1 356 355 355
351 350 346 344 345 344 342 344 342 336 330 298 174 170 158 145 138 137 137 136 135 135 135 136 138 139 141 144 148 151 157 163 166 164 162 163 162 156 151 150 146 139 132 128 125 117 112 128 217 296 13 116 114 111 113 125 146 170 195 212 224 240 244 237 248 350 17 3 359 357 345 341 345 348
359 355 351 350 352 354 355 358 2 2 16 135 145 148 145 139 136 138 139 139 140 139 138 139 140 140 143 148 153 156 158 160 162 161 157 154 150 144 141 144 146 142 131 118 111 109 111 111 71 42 76 96 103 107 115 118 115 128 150 173 196 218 235 250 266 280 291 323 338 339 338 343 347 349